Stations météo

réclame
Mon MeteoGroup
Badajoz/Talavera La Real, Espagne (8330): Température de l'air & dewpoint: 12.12.2017 09:00:00 - 18.12.2017 09:00:00 (CET)Badajoz/Talavera La Real, Espagne (8330): Vitesse du vent: 12.12.2017 09:00:00 - 18.12.2017 09:00:00 (CET)Badajoz/Talavera La Real, Espagne (8330): Direction du vent: 12.12.2017 09:00:00 - 18.12.2017 09:00:00 (CET)Badajoz/Talavera La Real, Espagne (8330): reduced air pressure: 12.12.2017 09:00:00 - 18.12.2017 09:00:00 (CET)Badajoz/Talavera La Real, Espagne (8330): visibility: 12.12.2017 09:00:00 - 18.12.2017 09:00:00 (CET)Badajoz/Talavera La Real, Espagne (8330): Quantités de précipitations: 12.12.2017 09:00:00 - 18.12.2017 09:00:00 (CET)
Date & Time tt [°C] td [°C] ff [km/h] ff [knt] dd ppp [hPa] vv [km] rr [mm]
18.12.2017 09:00:00 0,1 -0,2 4 2 S 1034,6 - 0,0
18.12.2017 08:00:00 -0,4 -0,8 2 1 WNW 1034,4 - 0,0
18.12.2017 07:00:00 -0,2 -0,8 2 1 WSW 1033,7 15 -
18.12.2017 06:00:00 0,8 -0,8 2 1 SSE 1033,8 - 0,0
18.12.2017 05:00:00 1,2 0,0 2 1 SE 1034,0 - 0,0
18.12.2017 04:00:00 1,8 0,3 0 0 N 1034,6 - -
18.12.2017 03:00:00 2,7 0,6 4 2 W 1034,5 - 0,0
18.12.2017 02:00:00 3,0 0,6 4 2 W 1034,2 - 0,0
18.12.2017 01:00:00 3,1 0,7 4 2 WSW 1034,2 - -
18.12.2017 00:00:00 3,4 0,6 0 0 N 1033,7 - 0,0
17.12.2017 23:00:00 3,8 1,0 2 1 WNW 1033,5 - 0,0
17.12.2017 22:00:00 4,3 1,3 2 1 NE 1033,2 - -
17.12.2017 21:00:00 5,5 1,6 2 1 NNW 1032,8 - 0,0
17.12.2017 20:00:00 6,9 1,4 8 4 ENE 1032,4 - 0,0
17.12.2017 19:00:00 8,3 1,7 8 4 NE 1031,6 25 -
17.12.2017 18:00:00 10,5 2,1 2 1 NW 1031,1 - 0,0
17.12.2017 17:00:00 12,0 1,0 9 5 N 1030,9 - 0,0
17.12.2017 16:00:00 12,3 1,9 5 3 NNE 1030,2 30 -
17.12.2017 15:00:00 11,9 1,8 9 5 E 1030,5 - 0,0
17.12.2017 14:00:00 11,0 2,0 9 5 ENE 1031,2 - 0,0
17.12.2017 13:00:00 9,7 2,5 4 2 ENE 1031,9 30 -
17.12.2017 12:00:00 7,5 3,2 4 2 SW 1033,0 - 0,0
17.12.2017 11:00:00 4,6 3,1 4 2 ENE 1033,1 - 0,0
17.12.2017 10:00:00 0,5 0,2 4 2 ENE 1032,3 30 -
17.12.2017 09:00:00 -0,3 -0,9 0 0 N 1032,0 - 0,0
17.12.2017 08:00:00 0,9 -0,4 2 1 E 1030,8 - 0,0
17.12.2017 07:00:00 1,2 0,2 4 2 SSE 1030,4 15 -
17.12.2017 06:00:00 1,6 0,6 2 1 SW 1030,2 - 0,0
17.12.2017 05:00:00 1,4 0,5 2 1 WSW 1029,9 - 0,0
17.12.2017 04:00:00 1,1 -0,2 4 2 NNE 1029,8 - -
17.12.2017 03:00:00 2,5 0,6 4 2 WSW 1029,3 - 0,0
17.12.2017 02:00:00 2,9 0,8 2 1 SW 1028,7 - 0,0
17.12.2017 01:00:00 4,1 0,6 2 1 NNW 1028,3 - -
17.12.2017 00:00:00 4,5 1,2 0 0 N 1028,2 - 0,0
16.12.2017 23:00:00 5,4 0,9 5 3 NNW 1027,4 - 0,0
16.12.2017 22:00:00 6,1 2,0 2 1 W 1026,7 - -
16.12.2017 21:00:00 6,8 3,0 4 2 W 1026,5 - 0,0
16.12.2017 20:00:00 6,8 3,2 2 1 W 1025,7 - 0,0
16.12.2017 19:00:00 9,1 3,1 2 1 SW 1024,9 25 -
16.12.2017 18:00:00 11,8 3,3 4 2 SSE 1023,8 - 0,0
16.12.2017 17:00:00 13,3 2,8 4 2 ENE 1023,5 - 0,0
16.12.2017 16:00:00 13,1 1,7 5 3 NE 1023,1 30 -
16.12.2017 15:00:00 12,5 2,6 5 3 NE 1022,9 - 0,0
16.12.2017 14:00:00 12,2 2,6 8 4 ENE 1023,1 - 0,0
16.12.2017 13:00:00 11,1 2,6 11 6 NNE 1023,5 30 -
16.12.2017 12:00:00 10,2 2,8 15 8 N 1024,1 - 0,0
16.12.2017 11:00:00 7,7 2,8 4 2 W 1023,8 - 0,0
16.12.2017 10:00:00 4,8 2,2 4 2 W 1023,1 30 -
16.12.2017 09:00:00 3,9 1,3 5 3 W 1022,1 - 0,0
16.12.2017 08:00:00 4,0 1,4 4 2 WSW 1021,6 - 0,0
16.12.2017 07:00:00 4,3 1,5 4 2 SW 1020,8 15 -
16.12.2017 06:00:00 4,8 1,5 4 2 ENE 1020,3 - 0,0
16.12.2017 05:00:00 5,3 1,4 5 3 WNW 1019,7 - 0,0
16.12.2017 04:00:00 5,8 1,7 5 3 W 1019,4 - -
16.12.2017 03:00:00 5,8 1,7 4 2 NW 1018,9 - 0,0
16.12.2017 02:00:00 6,1 2,4 9 5 W 1018,2 - 0,0
16.12.2017 01:00:00 6,0 2,6 15 8 NW 1018,0 - -
16.12.2017 00:00:00 6,9 3,5 11 6 W 1017,7 - 0,0
15.12.2017 23:00:00 7,3 4,1 9 5 W 1017,6 - 0,0
15.12.2017 22:00:00 8,1 6,4 8 4 W 1017,2 - -
15.12.2017 21:00:00 9,0 6,8 8 4 W 1016,4 - 0,0
15.12.2017 20:00:00 10,6 6,9 11 6 W 1015,6 - 0,0
15.12.2017 19:00:00 11,8 7,1 16 9 WNW 1014,9 10 -
15.12.2017 18:00:00 13,8 10,8 18 10 WNW 1013,5 - 0,0
15.12.2017 17:00:00 15,1 13,5 9 5 W 1012,9 - 0,0
15.12.2017 16:00:00 15,9 13,4 11 6 W 1012,7 10 -
15.12.2017 15:00:00 16,1 13,2 13 7 W 1013,2 - 0,0
15.12.2017 14:00:00 16,5 13,2 21 11 W 1013,7 - 0,0
15.12.2017 13:00:00 17,2 14,1 15 8 WSW 1014,5 10 -
15.12.2017 12:00:00 16,0 13,5 13 7 WSW 1015,7 - 0,0
15.12.2017 11:00:00 15,0 13,5 16 9 WSW 1016,2 - 0,0
15.12.2017 10:00:00 14,0 13,5 13 7 WSW 1016,0 12 -
15.12.2017 09:00:00 13,1 12,9 5 3 SW 1015,8 - 0,0
15.12.2017 08:00:00 12,7 12,7 4 2 SW 1016,3 - 0,0
15.12.2017 07:00:00 12,4 12,2 4 2 WSW 1016,8 9 -
15.12.2017 06:00:00 12,1 11,6 5 3 WSW 1017,0 - 0,0
15.12.2017 05:00:00 12,7 11,9 4 2 SW 1018,0 - 0,0
15.12.2017 04:00:00 12,8 11,7 4 2 WSW 1018,8 - -
15.12.2017 03:00:00 13,1 11,7 5 3 W 1019,0 - 0,0
15.12.2017 02:00:00 13,2 11,8 11 6 W 1019,1 - 0,0
15.12.2017 01:00:00 13,3 12,4 8 4 WSW 1019,6 - -
15.12.2017 00:00:00 13,3 12,8 8 4 WSW 1019,6 - 0,0
14.12.2017 23:00:00 13,1 12,6 8 4 SW 1019,9 - 0,0
14.12.2017 22:00:00 13,4 12,5 5 3 SW 1020,5 - -
14.12.2017 21:00:00 13,3 12,5 5 3 SW 1020,9 - 0,0
14.12.2017 20:00:00 13,8 12,7 9 5 WSW 1021,1 - 0,0
14.12.2017 19:00:00 13,8 12,9 8 4 WSW 1021,0 10 -
14.12.2017 18:00:00 14,0 13,2 8 4 WSW 1021,2 - 0,0
14.12.2017 17:00:00 14,4 13,4 11 6 WSW 1021,4 - 0,2
14.12.2017 16:00:00 14,9 13,1 8 4 SW 1021,3 10 -
14.12.2017 15:00:00 15,0 12,7 9 5 WSW 1022,0 - 0,0
14.12.2017 14:00:00 14,3 12,2 9 5 SW 1023,3 - 0,0
14.12.2017 13:00:00 13,4 12,0 9 5 SW 1024,5 - -
14.12.2017 12:00:00 13,1 11,8 8 4 SW 1025,5 - 0,0
14.12.2017 11:00:00 12,3 11,5 8 4 SSW 1025,8 - 0,0
14.12.2017 10:00:00 11,2 10,9 8 4 SW 1025,9 7 -
14.12.2017 09:00:00 10,4 10,2 4 2 W 1025,8 - 0,0
14.12.2017 08:00:00 10,3 10,0 4 2 WSW 1025,6 - 0,2
14.12.2017 07:00:00 10,2 9,6 4 2 W 1026,0 3,5 -
14.12.2017 06:00:00 10,3 9,1 4 2 SW 1026,2 - 0,0
14.12.2017 05:00:00 10,1 7,5 4 2 SW 1026,7 - 0,0
14.12.2017 04:00:00 10,1 7,0 5 3 SSW 1026,9 - -
14.12.2017 03:00:00 9,9 7,1 4 2 SW 1027,5 - 0,0
14.12.2017 02:00:00 9,7 6,2 4 2 WSW 1028,0 - 0,0
14.12.2017 01:00:00 9,3 6,0 2 1 SW 1028,5 - -
14.12.2017 00:00:00 8,9 5,8 2 1 SSW 1028,6 - 0,0
13.12.2017 23:00:00 9,4 5,8 2 1 W 1028,8 - 0,0
13.12.2017 22:00:00 10,1 6,8 4 2 WSW 1028,6 - -
13.12.2017 21:00:00 11,1 7,0 5 3 S 1028,5 - 0,0
13.12.2017 20:00:00 11,3 7,2 4 2 S 1028,3 - 0,0
13.12.2017 19:00:00 11,8 6,3 0 0 N 1028,3 15 -
13.12.2017 18:00:00 12,7 6,3 2 1 S 1028,1 - 0,0
13.12.2017 17:00:00 13,4 5,0 4 2 W 1028,2 - 0,0
13.12.2017 16:00:00 13,8 5,7 4 2 W 1028,0 20 -
13.12.2017 15:00:00 12,7 5,6 8 4 NNW 1028,5 - 0,0
13.12.2017 14:00:00 12,3 5,2 4 2 NW 1028,9 - 0,0
13.12.2017 13:00:00 10,9 5,4 4 2 SSE 1029,7 20 -
13.12.2017 12:00:00 7,9 5,0 8 4 ESE 1030,7 - 0,0
13.12.2017 11:00:00 4,4 3,7 5 3 NE 1031,8 - 0,0
13.12.2017 10:00:00 1,4 1,4 4 2 NNW 1030,6 10 -
13.12.2017 09:00:00 0,4 0,4 0 0 N 1029,8 - 0,0
13.12.2017 08:00:00 0,4 0,3 4 2 ESE 1029,4 - 0,0
13.12.2017 07:00:00 0,8 0,4 2 1 ESE 1029,1 10 -
13.12.2017 06:00:00 1,3 0,7 2 1 NNW 1028,9 - 0,0
13.12.2017 05:00:00 3,0 2,1 5 3 S 1028,3 - 0,0
13.12.2017 04:00:00 2,0 1,6 4 2 ESE 1028,5 - -
13.12.2017 03:00:00 3,0 2,0 2 1 WSW 1027,2 - 0,0
13.12.2017 02:00:00 3,2 1,7 4 2 W 1027,4 - 0,0
13.12.2017 01:00:00 4,6 2,3 2 1 WSW 1027,1 - -
13.12.2017 00:00:00 5,1 2,6 4 2 WSW 1026,6 - 0,0
12.12.2017 23:00:00 5,4 2,4 4 2 W 1025,8 - 0,0
12.12.2017 22:00:00 6,5 2,6 2 1 SW 1024,9 - -
12.12.2017 21:00:00 7,8 2,3 4 2 WSW 1024,4 - 0,0
12.12.2017 20:00:00 6,8 2,9 4 2 WSW 1023,9 - 0,0
12.12.2017 19:00:00 9,2 3,2 5 3 SW 1022,9 12 -
12.12.2017 18:00:00 10,8 2,6 4 2 W 1022,3 - 0,0
12.12.2017 17:00:00 12,0 1,6 9 5 N 1021,6 - 0,0
12.12.2017 16:00:00 12,5 1,8 9 5 NNE 1021,2 20 -
12.12.2017 15:00:00 12,2 2,1 9 5 NNW 1020,4 - 0,0
12.12.2017 14:00:00 11,8 2,0 5 3 NW 1020,3 - 0,0
12.12.2017 13:00:00 10,4 3,0 8 4 WNW 1020,9 15 -
12.12.2017 12:00:00 9,1 2,6 9 5 NNW 1021,0 - 0,0
12.12.2017 11:00:00 8,2 1,8 5 3 SSW 1020,8 - 0,0
12.12.2017 10:00:00 5,2 2,2 2 1 SW 1020,1 12 -
12.12.2017 09:00:00 3,1 0,7 4 2 SE 1019,2 - 0,0

tt = Température de l'air
td = dewpoint
ff = Vitesse du vent
dd = Direction du vent
ppp = reduced air pressure
vv = visibility
rr = Quantités de précipitations

stations d'obs. à proximité